Temp
21 21 22 21 21 21 22 23 23 23 23 23 23 22 21 21 21 21 22 21 21 21 21 22 22 23 23 22 22 22 21 22 21 21 21 22 23 21 20 20 21 21 20
22 21 22 21 21 21 22 22 22 23 23 23 23 22 21 21 21 21 21 21 22 21 21 21 22 22 22 22 22 22 21 21 21 22 22 24 23 23 21 21 20 21 21
21 21 22 21 21 21 22 22 22 22 23 23 23 22 21 21 21 21 21 21 22 22 22 21 22 22 22 22 22 22 21 21 21 21 22 22 23 23 22 22 20 20 20
22 22 21 22 22 21 21 21 22 22 22 22 22 22 22 21 21 21 21 21 22 22 22 22 22 21 22 21 21 21 21 21 21 21 21 21 21 22 21 21 21 20 20
21 22 21 22 22 22 21 21 22 22 21 22 22 22 22 21 21 21 21 21 21 22 22 21 21 21 21 21 21 21 21 21 21 21 21 20 20 20 19 21 20 20 19
22 22 21 21 22 20 21 22 23 21 22 22 22 22 23 22 22 22 22 21 22 22 22 21 21 21 20 20 21 21 21 21 21 21 21 20 20 20 20 20 20 20 20
22 22 21 21 22 20 20 21 21 22 21 22 22 22 22 22 22 21 21 22 22 22 21 21 21 20 21 21 21 21 21 21 21 21 20 20 20 20 18 18 20 20 20
22 22 21 21 21 20 20 20 20 21 21 21 21 22 22 22 22 22 22 22 22 21 21 21 21 21 21 22 22 21 21 21 21 20 20 20 20 19 18 18 19 19 20
22 22 22 22 21 20 19 20 19 21 21 21 21 22 22 21 21 22 22 22 21 21 21 20 21 21 21 21 21 21 21 21 21 21 20 20 20 20 19 18 18 20 20
21 21 22 22 21 20 20 20 20 20 21 21 21 21 21 21 21 21 22 21 21 21 21 21 21 21 21 21 21 21 21 21 20 20 20 21 20 20 20 19 19 19 19
21 21 22 22 21 21 21 20 20 20 21 21 21 21 21 21 21 21 21 21 21 21 21 21 21 21 22 22 22 21 21 20 20 20 20 21 20 20 20 20 20 21 21
21 21 21 22 22 21 20 20 20 20 20 20 21 21 21 21 22 21 21 21 21 21 21 21 21 22 22 21 21 20 20 20 20 20 20 21 20 20 20 20 21 21 21
22 21 21 21 22 22 21 21 21 21 21 21 21 21 21 21 21 21 21 22 21 21 22 22 21 21 21 20 20 20 19 20 20 20 21 20 20 20 20 21 21 21 21
22 21 21 20 20 21 21 21 21 21 21 21 21 21 21 21 21 21 21 21 21 21 21 21 21 22 21 22 20 20 19 20 20 20 21 21 20 19 20 20 20 20 20
22 22 21 20 19 19 20 20 20 20 20 20 20 21 20 21 21 21 21 21 22 23 22 21 21 21 21 21 20 20 20 20 20 20 21 21 20 20 20 20 20 20 20
22 21 21 20 19 20 19 19 19 20 19 20 20 20 20 21 22 21 21 21 23 23 23 23 22 21 22 21 21 20 20 20 20 20 21 21 20 20 20 20 20 20 21
22 21 20 20 19 19 19 19 19 19 19 19 19 20 20 21 21 22 21 23 22 24 24 23 22 22 22 21 21 21 21 21 21 20 21 22 20 20 20 20 20 20 20
22 21 20 20 20 19 20 19 19 19 19 19 19 20 20 21 21 22 22 23 23 24 23 23 23 22 22 21 21 21 21 21 21 21 21 22 22 22 21 20 20 20 20
22 21 20 20 19 20 19 19 19 19 19 19 20 20 21 21 21 22 22 23 23 23 23 22 23 22 22 22 22 22 21 22 22 22 21 21 21 22 22 21 21 21 20
23 21 20 19 22 20 19 19 18 19 19 20 20 20 21 21 22 22 22 23 24 23 23 23 23 22 21 22 23 22 22 22 21 21 22 22 21 21 22 21 21 21 20
23 22 20 20 21 19 19 18 19 19 19 20 20 21 22 22 22 23 22 24 24 23 22 23 22 21 22 21 23 23 22 22 22 22 22 22 22 22 22 22 22 22 22
23 22 21 20 19 19 19 19 19 19 20 20 20 21 22 22 23 23 24 23 24 23 23 23 23 22 22 21 23 23 26 24 22 22 21 22 22 22 22 22 22 21 22
23 22 21 20 20 19 19 19 19 19 20 20 20 21 22 22 23 23 24 24 24 24 23 23 23 23 23 21 21 22 26 27 24 22 22 22 22 22 22 22 22 22 21
23 22 21 20 20 19 19 19 19 21 22 22 21 21 22 23 23 23 23 24 24 24 23 23 23 23 23 23 21 21 20 22 26 27 23 23 22 22 22 22 22 22 21
23 22 21 20 20 20 19 20 20 21 22 22 21 22 23 22 23 23 23 23 24 23 24 24 24 24 22 23 23 22 22 22 22 25 27 25 23 23 22 22 22 22 22
22 22 21 20 20 20 19 19 20 21 21 21 22 22 22 22 22 23 23 23 24 24 24 24 24 23 23 23 22 22 23 24 25 24 25 25 25 23 23 22 22 22 22
Height
806 809 812 815 817 818 820 821 822 824 826 828 830 832 834 835 836 838 839 841 843 844 845 845 846 848 849 850 850 851 852 853 854 854 854 855 858 863 868 869 870 872 870
804 810 813 815 818 820 820 822 823 826 827 830 832 834 836 837 838 839 841 843 845 846 846 848 849 850 851 852 852 853 854 854 856 855 854 853 859 863 868 872 873 873 874
804 809 814 818 820 822 824 824 826 828 830 832 834 836 839 839 840 841 843 845 846 847 848 850 850 851 852 853 853 854 855 856 857 857 857 856 860 864 868 872 874 875 877
806 811 815 819 820 823 825 827 825 830 832 834 836 839 840 841 842 844 845 846 848 848 850 850 852 853 853 854 854 855 856 857 857 858 859 860 861 864 869 872 874 876 879
808 813 817 819 822 825 828 830 829 830 834 837 839 840 841 842 842 845 846 847 849 849 850 851 852 852 854 856 856 855 856 857 857 858 858 860 862 864 870 870 873 875 880
810 815 818 820 822 821 831 829 829 831 833 839 841 839 841 842 845 846 847 847 849 850 849 850 851 851 853 855 856 856 857 858 858 859 858 859 861 864 868 871 873 876 879
811 816 820 822 825 827 834 833 832 831 835 839 842 840 841 843 845 845 848 848 848 849 850 851 851 852 853 853 854 855 856 856 857 858 857 859 861 864 867 868 873 876 877
812 816 821 824 827 830 834 837 834 834 836 839 842 841 842 843 843 845 848 848 849 849 850 851 851 853 853 854 853 854 854 854 855 857 858 859 861 864 864 868 870 873 876
813 815 820 824 827 829 831 836 832 837 838 840 842 843 844 844 844 845 848 849 850 850 850 851 852 853 854 854 854 852 853 855 854 855 858 858 858 862 865 866 867 872 876
813 817 819 822 826 827 829 830 832 837 839 842 843 844 844 844 846 846 848 849 850 850 850 851 852 854 853 854 853 853 853 853 853 854 856 856 857 861 863 865 868 872 876
814 816 818 822 825 828 830 831 833 836 840 843 844 845 844 844 846 847 848 849 850 850 851 852 852 854 854 854 853 851 852 853 852 853 854 854 856 859 861 863 866 868 871
813 816 817 820 824 827 830 832 835 838 840 841 843 843 842 844 846 847 848 848 849 850 850 851 851 853 853 853 853 851 851 851 851 851 853 852 855 857 860 862 864 865 868
812 815 817 820 822 826 829 832 835 837 839 841 842 842 842 843 845 846 847 848 850 849 850 851 851 851 852 852 852 851 848 849 850 850 851 851 854 856 860 862 862 865 867
811 814 818 820 822 825 829 831 833 835 836 838 840 840 841 842 845 845 846 847 848 849 850 850 850 850 849 849 850 850 848 848 848 849 850 851 852 856 859 861 863 865 866
809 813 817 820 822 825 827 829 830 832 834 836 838 839 840 841 844 845 845 846 847 848 848 848 848 848 848 849 849 848 848 847 847 848 850 851 852 854 858 861 863 865 865
808 812 816 819 821 823 825 827 829 830 832 834 836 837 839 840 842 844 845 846 846 846 846 847 847 846 847 848 847 847 846 846 846 847 850 851 854 855 857 860 862 864 864
807 810 813 817 820 823 825 826 828 829 830 833 835 836 838 839 841 842 844 845 846 845 845 846 846 846 846 846 846 846 845 846 847 848 850 852 855 856 857 859 861 863 864
804 808 811 813 817 820 823 825 826 827 828 831 832 834 836 837 839 841 843 844 845 845 845 845 845 846 845 845 845 845 845 846 847 848 850 852 855 857 858 858 859 862 864
801 805 808 811 814 817 821 822 824 826 828 830 832 833 835 837 839 840 843 843 844 845 846 846 845 846 846 846 846 845 844 846 848 848 850 851 854 856 858 858 859 861 863
799 802 805 809 811 815 818 821 823 824 827 829 831 833 835 836 838 840 842 843 844 845 846 845 846 846 846 846 846 846 846 846 847 849 850 851 853 854 857 859 859 861 861
796 799 803 806 808 813 816 819 822 824 826 827 830 831 833 835 837 839 841 842 843 844 846 845 846 846 846 845 846 846 847 847 847 847 849 850 852 852 855 857 858 859 859
791 796 800 803 806 810 814 817 820 823 826 828 830 831 832 834 837 839 841 842 843 843 844 845 845 846 847 846 847 847 844 847 847 846 847 849 851 852 853 855 857 858 859
788 792 795 799 802 807 811 815 818 822 825 827 829 831 832 834 836 838 840 841 842 842 844 845 845 845 847 847 847 848 844 842 844 845 846 847 848 850 851 853 855 855 857
785 790 793 796 800 804 808 811 815 818 821 825 827 830 832 833 835 837 840 840 841 841 843 843 844 844 845 846 847 847 847 847 842 841 845 846 847 848 848 849 851 852 854
783 787 790 794 799 801 804 808 812 817 820 823 825 828 830 832 834 836 839 839 840 841 842 842 844 844 844 845 846 847 847 846 845 843 840 842 844 845 845 846 847 849 850
781 785 789 792 796 799 801 805 808 813 816 820 823 826 828 831 833 835 837 838 839 840 842 841 841 842 842 843 844 846 846 845 844 843 841 840 841 842 842 842 842 845 847
Wind_Speed
17 19 19 18 18 17 18 16 18 20 18 18 18 17 16 16 18 18 17 14 13 11 11 10 10 9 7 7 6 6 7 9 10 10 14 15 13 10 6 8 11 10 13
24 20 21 20 19 19 19 19 18 20 18 18 16 15 14 15 16 15 13 12 10 8 8 7 6 5 5 6 6 6 8 9 10 5 9 9 4 8 8 5 7 10 11
25 23 21 20 19 18 18 19 18 17 18 18 16 14 12 13 13 13 12 11 9 7 6 4 3 3 2 4 4 6 9 10 11 8 8 12 16 11 9 8 3 8 10
23 22 22 21 20 20 18 18 20 16 16 18 14 11 11 12 12 11 11 9 8 6 5 6 4 3 3 4 3 5 10 11 8 7 10 13 14 17 13 10 9 6 9
22 21 21 23 21 19 16 17 16 16 12 13 12 10 9 9 10 9 9 9 8 7 7 6 6 5 5 5 4 7 11 9 6 4 8 13 15 18 23 17 14 11 8
20 19 22 22 25 27 19 23 21 15 13 10 11 14 13 9 8 8 8 9 9 8 9 8 9 9 7 7 9 10 7 6 5 2 7 11 15 19 26 26 16 17 13
20 19 19 21 24 24 19 17 20 19 16 13 13 14 13 10 8 9 7 9 10 10 8 8 9 9 9 9 9 7 4 3 1 3 5 11 12 14 19 29 21 25 19
20 19 18 20 22 20 16 13 16 19 16 13 13 13 12 11 11 10 7 9 9 9 9 9 8 8 8 7 8 7 5 5 4 5 5 8 12 15 20 20 27 34 29
17 17 17 18 20 22 19 15 13 18 12 11 14 14 11 10 9 8 7 7 8 8 8 9 8 7 6 6 6 6 7 7 8 7 4 5 12 17 20 18 22 32 28
14 13 15 16 19 22 27 19 19 19 14 13 12 12 9 12 9 8 7 8 8 7 8 8 8 7 7 7 7 5 4 1 6 6 5 7 12 16 18 25 25 28 26
13 13 13 15 18 21 23 17 20 19 15 14 12 11 11 11 11 8 7 8 7 8 7 7 9 7 7 6 5 6 7 3 4 7 5 7 12 13 15 20 22 22 23
15 15 13 14 18 18 17 17 16 19 16 14 14 13 10 11 13 8 8 8 7 7 8 9 9 7 6 5 5 6 6 4 2 6 5 9 12 12 15 18 19 18 19
17 14 15 15 15 15 17 17 17 17 17 18 15 11 9 12 10 8 8 8 7 8 8 7 7 5 5 6 4 6 3 6 3 4 5 7 11 13 14 15 17 16 16
18 17 15 14 14 14 15 15 12 13 16 15 14 12 11 11 11 9 8 6 7 7 7 7 7 6 5 6 4 3 2 6 4 3 5 7 9 11 15 13 13 14 15
17 18 16 14 13 11 12 10 10 12 12 11 13 12 12 11 11 8 7 6 5 7 7 7 6 5 5 4 4 0 2 3 4 4 4 5 8 13 14 13 14 14 13
15 16 16 16 14 11 11 10 10 11 11 13 12 13 13 12 11 7 5 5 5 7 7 6 5 5 6 5 4 1 0 2 3 6 6 7 12 12 13 14 13 12 11
15 14 17 17 14 13 12 11 10 11 11 10 11 15 13 11 11 7 6 5 4 4 6 6 5 7 6 8 4 2 1 3 6 7 8 9 10 10 10 12 13 12 11
16 16 16 16 15 15 14 12 10 11 12 12 14 15 11 10 9 8 6 4 4 4 4 3 4 4 6 7 5 5 3 5 6 8 8 9 8 7 7 8 9 10 11
17 16 16 16 15 16 14 13 12 12 12 16 12 9 8 8 7 7 5 3 2 3 2 1 2 3 5 6 5 7 5 6 5 6 7 7 7 7 7 7 7 8 10
16 16 14 14 16 15 13 11 10 13 14 18 9 7 7 7 6 6 4 3 4 2 2 3 1 1 2 4 6 5 5 4 4 4 5 6 7 7 6 7 7 8 10
15 16 16 16 16 15 15 11 11 12 14 18 11 9 8 9 7 7 5 5 6 4 2 3 1 1 2 3 3 2 3 3 3 3 3 5 6 7 7 7 7 8 8
18 18 18 17 17 16 14 13 10 13 12 11 9 10 10 9 9 8 6 4 6 4 2 4 2 1 1 1 2 2 1 3 2 3 3 4 5 5 7 7 9 9 9
20 20 20 19 19 18 16 13 10 11 9 10 9 9 12 10 9 9 8 5 7 6 4 3 3 2 1 1 2 2 2 1 1 3 4 5 5 6 8 10 10 11 11
20 18 18 19 19 18 19 16 16 17 14 11 11 10 9 10 10 11 10 7 6 6 6 4 4 3 1 0 0 2 3 2 2 2 4 6 7 7 7 10 11 12 12
18 19 19 19 19 19 19 18 19 17 14 10 11 11 10 11 12 12 10 9 7 5 4 3 3 2 2 1 1 2 2 1 2 2 0 4 5 9 8 8 10 10 11
18 19 19 20 20 19 20 21 21 18 15 12 12 11 12 11 10 12 9 9 10 8 6 4 4 3 2 2 1 3 2 2 2 2 3 1 4 3 6 9 11 10 10
Wind_Direction
167 160 159 151 148 145 146 141 151 155 150 152 154 152 146 144 149 145 148 140 134 125 111 107 102 90 74 63 65 87 105 106 106 124 120 113 109 107 102 120 121 118 117
157 158 161 153 147 149 150 141 150 161 161 156 154 152 147 148 147 154 154 153 149 136 129 114 101 95 66 59 72 84 105 116 112 140 148 146 127 133 133 116 123 143 134
155 158 159 152 143 145 148 146 141 152 160 162 159 155 150 147 146 150 160 158 169 154 150 138 167 123 99 83 90 97 104 113 122 135 148 160 191 197 152 140 154 149 147
155 158 157 153 149 147 148 147 146 145 157 169 165 157 156 147 152 154 157 161 172 174 181 200 192 197 186 149 136 135 120 114 122 130 159 174 177 179 167 166 161 187 158
159 156 158 157 150 139 146 143 140 145 157 168 166 167 182 174 171 166 171 172 179 184 194 194 183 190 186 165 129 136 131 117 110 156 146 173 178 185 182 198 170 193 197
162 161 160 158 155 149 172 158 155 151 145 175 169 172 195 196 179 175 181 178 178 186 188 188 190 191 179 169 163 139 134 140 124 51 193 176 180 183 181 198 191 193 201
163 163 164 168 163 159 167 162 165 162 159 185 191 187 195 183 160 175 182 172 172 179 180 186 189 188 188 181 178 187 185 168 186 300 168 170 181 172 174 192 186 193 198
165 166 168 172 170 153 140 156 174 175 174 185 193 195 184 172 170 161 185 171 179 175 178 189 203 202 196 203 193 185 207 210 203 209 172 184 178 172 167 176 196 195 204
171 171 170 175 164 160 168 188 199 190 192 189 197 183 173 166 167 177 180 180 182 188 190 207 205 212 227 236 237 223 214 208 230 211 193 184 182 172 172 185 173 181 200
174 176 183 171 172 172 175 183 181 203 210 194 188 180 176 174 175 183 178 191 188 202 204 213 224 234 244 250 251 235 226 251 219 183 191 193 179 177 165 177 181 187 194
180 186 188 174 168 167 175 183 181 206 206 190 182 185 182 178 184 189 195 199 199 218 223 237 248 253 264 255 257 239 248 263 217 200 208 206 186 189 174 171 184 190 188
181 183 182 178 164 163 173 180 184 187 191 195 189 187 193 203 200 203 204 200 214 231 236 245 258 269 271 265 274 277 259 241 181 195 209 194 182 175 173 170 175 180 189
183 184 182 180 180 167 173 173 175 184 193 196 193 206 207 206 195 204 210 215 222 230 243 255 265 267 264 282 285 306 252 180 164 154 192 179 191 182 182 173 172 175 182
188 192 189 187 182 172 176 183 187 194 200 200 205 218 210 205 198 211 210 225 235 235 247 260 268 286 311 311 307 327 157 177 169 139 175 182 184 192 186 190 185 180 179
192 197 197 193 188 187 191 192 195 188 188 190 202 204 208 204 201 208 222 229 231 240 257 273 289 299 330 349 343 6 127 160 180 159 153 162 172 175 185 186 175 184 187
198 203 199 200 203 210 205 197 196 196 195 197 200 204 199 202 205 218 230 249 254 256 254 266 311 322 344 352 352 351 62 114 144 154 141 139 154 165 171 172 180 184 188
205 203 201 201 210 204 199 195 197 203 192 183 190 199 195 203 205 221 240 245 261 247 250 271 295 338 350 346 339 349 60 95 118 131 131 139 163 177 174 174 186 196 196
205 199 198 195 200 199 201 195 192 195 190 181 184 179 188 203 219 217 243 246 247 252 253 281 311 354 351 1 14 26 53 102 117 123 130 138 158 175 188 194 192 193 187
203 197 201 198 202 202 194 197 195 191 181 172 175 197 197 209 220 229 242 242 206 214 259 268 5 359 5 19 26 28 61 102 113 118 129 132 156 165 174 199 196 190 188
205 194 194 196 205 192 187 187 190 196 190 179 193 197 207 214 214 216 224 231 221 202 230 253 360 30 355 13 33 36 67 107 118 131 149 152 168 170 177 181 194 204 197
205 195 189 196 193 173 179 179 192 195 189 193 207 211 218 207 203 205 211 252 214 199 208 179 158 35 357 323 357 65 77 120 167 169 183 189 187 185 188 197 203 199 209
203 197 189 189 183 179 186 192 191 184 196 200 209 223 217 210 199 200 203 216 197 218 217 189 161 136 40 198 354 299 225 176 177 172 199 205 209 213 209 207 219 217 209
202 196 189 190 185 185 187 189 189 185 189 198 207 211 210 214 215 203 199 216 226 231 204 214 198 176 221 149 257 297 269 10 226 192 207 212 222 234 224 217 221 223 222
202 197 188 187 189 188 190 189 190 190 187 197 197 197 212 215 205 201 203 210 223 244 239 214 221 193 170 333 273 242 269 289 319 170 196 212 223 231 238 224 222 225 227
194 191 187 187 191 188 191 192 186 190 195 191 186 191 210 198 194 196 200 206 216 208 189 200 207 210 232 234 208 185 226 280 272 291 152 183 224 234 236 226 230 231 233
188 184 185 186 192 193 191 195 191 190 188 189 187 192 202 193 191 194 202 216 216 219 224 227 219 216 223 216 211 234 256 315 344 306 284 276 275 241 230 232 225 229 239